VEG YPJT-YPJT

Flight info

Callsign VEG
Flight time N/A
Altitude 1500
Route PH
Aircraft TBM9/L-V/N

Departure

Time 2026-04-26 13:19
Airport Perth Jandakot Airport (YPJT)

Arrival

Time N/A
Airport Perth Jandakot Airport (YPJT)
Time Latitude Longitude Altitude Speed Heading
2026-04-26 12:59 -32.09783 115.87587 99 ft 0 kts 55°
2026-04-26 13:09 -32.09783 115.87595 99 ft 0 kts 126°
2026-04-26 13:17 -32.09864 115.87487 99 ft 15 kts 236°
2026-04-26 13:17 -32.09904 115.87420 99 ft 6 kts 235°
2026-04-26 13:18 -32.09957 115.87333 99 ft 0 kts 232°
2026-04-26 13:18 -32.09988 115.87299 98 ft 23 kts 185°
2026-04-26 13:19 -32.10120 115.87571 97 ft 70 kts 110°
2026-04-26 13:19 -32.10408 115.88313 102 ft 127 kts 117°
2026-04-26 13:19 -32.10861 115.89351 422 ft 148 kts 133°
2026-04-26 13:19 -32.11804 115.89797 988 ft 158 kts 185°
2026-04-26 13:20 -32.12740 115.89066 1466 ft 181 kts 234°
2026-04-26 13:20 -32.12977 115.87557 1423 ft 190 kts 287°
2026-04-26 13:20 -32.12176 115.86447 1540 ft 179 kts 339°
2026-04-26 13:20 -32.10991 115.86319 1654 ft 171 kts 15°
2026-04-26 13:21 -32.09902 115.86690 2015 ft 154 kts 23°
2026-04-26 13:21 -32.09247 115.87012 2200 ft 152 kts 28°
2026-04-26 13:21 -32.08235 115.87687 3004 ft 117 kts 31°
2026-04-26 13:21 -32.07561 115.88220 3313 ft 127 kts 34°
2026-04-26 13:22 -32.06809 115.88930 3293 ft 155 kts 41°
2026-04-26 13:22 -32.05952 115.89835 3132 ft 175 kts 43°
2026-04-26 13:22 -32.05088 115.90838 3456 ft 162 kts 44°
2026-04-26 13:22 -32.04328 115.91756 3488 ft 161 kts 44°
2026-04-26 13:23 -32.03507 115.92697 3510 ft 168 kts 33°
2026-04-26 13:23 -32.02436 115.93276 3516 ft 171 kts 20°
2026-04-26 13:23 -32.01301 115.93713 3534 ft 172 kts 10°
2026-04-26 13:23 -32.00138 115.93444 3540 ft 176 kts 333°
2026-04-26 13:24 -31.99129 115.92611 3552 ft 177 kts 327°
2026-04-26 13:24 -31.98137 115.91753 3570 ft 177 kts 327°
2026-04-26 13:24 -31.97131 115.90915 3600 ft 177 kts 329°
2026-04-26 13:24 -31.96115 115.90090 3637 ft 177 kts 328°
2026-04-26 13:25 -31.95110 115.89252 3700 ft 177 kts 328°
2026-04-26 13:25 -31.94106 115.88413 3729 ft 176 kts 328°
2026-04-26 13:25 -31.93098 115.87565 3900 ft 178 kts 327°
2026-04-26 13:25 -31.92153 115.86775 3986 ft 153 kts 328°
2026-04-26 13:26 -31.91240 115.86014 3991 ft 168 kts 328°
2026-04-26 13:26 -31.90259 115.85202 3997 ft 176 kts 327°
2026-04-26 13:26 -31.89246 115.84361 4004 ft 182 kts 327°
2026-04-26 13:26 -31.88194 115.83494 4010 ft 185 kts 329°
2026-04-26 13:27 -31.87010 115.82921 4009 ft 186 kts 349°
2026-04-26 13:27 -31.85721 115.82833 4011 ft 187 kts
2026-04-26 13:27 -31.84466 115.83247 4012 ft 189 kts 24°
2026-04-26 13:27 -31.83372 115.84134 3897 ft 198 kts 42°
2026-04-26 13:28 -31.82493 115.85408 3567 ft 201 kts 52°
2026-04-26 13:28 -31.81713 115.86767 3259 ft 200 kts 57°
2026-04-26 13:28 -31.81050 115.88200 2938 ft 199 kts 63°
2026-04-26 13:28 -31.80511 115.89675 2805 ft 191 kts 68°
2026-04-26 13:29 -31.80103 115.91126 2807 ft 185 kts 73°
2026-04-26 13:29 -31.79895 115.92094 2808 ft 184 kts 75°
2026-04-26 13:29 -31.79622 115.94063 2804 ft 185 kts 82°
2026-04-26 13:29 -31.79542 115.95563 2779 ft 183 kts 86°
2026-04-26 13:30 -31.79595 115.97050 2777 ft 183 kts 99°
2026-04-26 13:30 -31.80199 115.98380 2789 ft 188 kts 127°
2026-04-26 13:30 -31.81232 115.99342 2804 ft 194 kts 151°
2026-04-26 13:30 -31.82547 115.99706 2810 ft 198 kts 178°
2026-04-26 13:31 -31.83948 115.99460 2272 ft 209 kts 193°
2026-04-26 13:31 -31.85369 115.98984 1568 ft 212 kts 195°
2026-04-26 13:31 -31.86725 115.98571 1343 ft 187 kts 191°
2026-04-26 13:31 -31.87898 115.98205 1195 ft 164 kts 192°
2026-04-26 13:32 -31.88987 115.97916 874 ft 155 kts 188°
2026-04-26 13:32 -31.89987 115.97653 705 ft 138 kts 194°
2026-04-26 13:32 -31.90894 115.97395 480 ft 126 kts 194°
2026-04-26 13:32 -31.91702 115.97171 327 ft 115 kts 195°
2026-04-26 13:33 -31.92443 115.96959 171 ft 105 kts 194°
2026-04-26 13:33 -31.93152 115.96760 54 ft 101 kts 195°
2026-04-26 13:33 -31.93769 115.96576 46 ft 90 kts 195°
2026-04-26 13:33 -31.94518 115.96388 215 ft 128 kts 195°
2026-04-26 13:34 -31.95466 115.96057 586 ft 151 kts 198°
2026-04-26 13:34 -31.96514 115.95713 1040 ft 165 kts 195°
2026-04-26 13:34 -31.97270 115.95435 1436 ft 169 kts 196°
2026-04-26 13:34 -31.98024 115.95115 1759 ft 179 kts 198°
2026-04-26 13:35 -31.99490 115.93878 2117 ft 209 kts 229°
2026-04-26 13:35 -32.00341 115.92619 2617 ft 163 kts 241°
2026-04-26 13:35 -32.00683 115.91645 2946 ft 112 kts 278°
2026-04-26 13:35 -32.00576 115.90743 2975 ft 120 kts 285°
2026-04-26 13:36 -32.00422 115.89835 2980 ft 103 kts 289°
2026-04-26 13:36 -32.00290 115.89048 2892 ft 96 kts 288°
2026-04-26 13:36 -32.00142 115.88148 3043 ft 131 kts 289°
2026-04-26 13:36 -31.99863 115.86944 3172 ft 172 kts 290°
2026-04-26 13:37 -31.99552 115.85624 3048 ft 157 kts 290°
2026-04-26 13:37 -31.99298 115.84489 3005 ft 130 kts 290°
2026-04-26 13:37 -31.99102 115.83527 2983 ft 115 kts 289°
2026-04-26 13:37 -31.98933 115.82639 2984 ft 104 kts 289°
2026-04-26 13:38 -31.98794 115.81833 2990 ft 98 kts 288°
2026-04-26 13:38 -31.98606 115.80847 3035 ft 151 kts 290°
2026-04-26 13:38 -31.98281 115.79514 3040 ft 190 kts 290°
2026-04-26 13:38 -31.97876 115.77929 3036 ft 213 kts 290°
2026-04-26 13:39 -31.97421 115.76166 3029 ft 228 kts 290°
2026-04-26 13:39 -31.96944 115.74341 3016 ft 235 kts 291°
2026-04-26 13:39 -31.96452 115.72504 3014 ft 235 kts 295°
2026-04-26 13:39 -31.95477 115.71029 3011 ft 229 kts 328°
2026-04-26 13:40 -31.93994 115.70504 3015 ft 225 kts
2026-04-26 13:40 -31.92533 115.71013 2993 ft 223 kts 27°
2026-04-26 13:40 -31.91166 115.71883 2996 ft 223 kts 30°
2026-04-26 13:40 -31.89812 115.72780 2997 ft 223 kts 30°
2026-04-26 13:41 -31.88459 115.73686 2996 ft 224 kts 30°
2026-04-26 13:41 -31.87107 115.74594 2955 ft 225 kts 30°
2026-04-26 13:41 -31.85719 115.75522 2795 ft 233 kts 30°
2026-04-26 13:41 -31.84417 115.76631 2793 ft 231 kts 44°
2026-04-26 13:42 -31.83329 115.78011 2793 ft 229 kts 49°
2026-04-26 13:42 -31.82271 115.79409 2789 ft 228 kts 48°
2026-04-26 13:42 -31.81222 115.80797 2788 ft 227 kts 48°
2026-04-26 13:42 -31.80173 115.82179 2790 ft 227 kts 49°
2026-04-26 13:43 -31.79128 115.83563 2787 ft 226 kts 48°
2026-04-26 13:43 -31.78074 115.84944 2787 ft 227 kts 48°
2026-04-26 13:43 -31.77021 115.86327 2779 ft 227 kts 48°
2026-04-26 13:43 -31.75969 115.87712 2790 ft 229 kts 49°
2026-04-26 13:44 -31.74899 115.89135 2783 ft 236 kts 49°
2026-04-26 13:44 -31.73808 115.90583 2786 ft 237 kts 49°
2026-04-26 13:44 -31.72711 115.92047 2780 ft 240 kts 48°
2026-04-26 13:44 -31.71599 115.93503 2778 ft 239 kts 48°
2026-04-26 13:45 -31.70511 115.94970 2777 ft 230 kts 49°
2026-04-26 13:45 -31.69525 115.96278 2770 ft 204 kts 47°
2026-04-26 13:45 -31.68608 115.97482 2765 ft 193 kts 49°
2026-04-26 13:45 -31.67725 115.98634 2768 ft 189 kts 48°
2026-04-26 13:46 -31.66895 115.99820 2762 ft 188 kts 60°
2026-04-26 13:46 -31.66661 116.00793 2776 ft 190 kts 85°
2026-04-26 13:46 -31.67086 116.02257 2782 ft 199 kts 126°
2026-04-26 13:46 -31.68269 116.03119 2789 ft 208 kts 165°
2026-04-26 13:47 -31.69710 116.03347 2779 ft 209 kts 171°
2026-04-26 13:47 -31.71156 116.03414 2783 ft 209 kts 185°
2026-04-26 13:47 -31.72597 116.03139 2777 ft 210 kts 189°
2026-04-26 13:47 -31.74031 116.02788 2780 ft 212 kts 195°
2026-04-26 13:48 -31.75420 116.02227 2778 ft 211 kts 200°
2026-04-26 13:48 -31.76780 116.01574 2773 ft 211 kts 198°
2026-04-26 13:48 -31.78189 116.01105 2781 ft 210 kts 193°
2026-04-26 13:48 -31.79627 116.00690 2641 ft 217 kts 192°
2026-04-26 13:49 -31.81118 116.00262 2357 ft 223 kts 192°
2026-04-26 13:49 -31.82550 115.99835 2084 ft 202 kts 192°
2026-04-26 13:49 -31.83854 115.99456 1816 ft 185 kts 190°
2026-04-26 13:49 -31.85034 115.99124 1583 ft 164 kts 191°
2026-04-26 13:50 -31.86087 115.98814 1373 ft 148 kts 191°
2026-04-26 13:50 -31.87039 115.98542 1191 ft 134 kts 192°
2026-04-26 13:50 -31.87893 115.98288 1027 ft 123 kts 193°
2026-04-26 13:50 -31.88692 115.98061 873 ft 110 kts 193°
2026-04-26 13:51 -31.89392 115.97854 746 ft 98 kts 193°
2026-04-26 13:51 -31.90052 115.97666 642 ft 102 kts 194°
2026-04-26 13:51 -31.90647 115.97488 518 ft 81 kts 196°
2026-04-26 13:51 -31.91146 115.97341 412 ft 70 kts 195°
2026-04-26 13:52 -31.91653 115.97201 351 ft 77 kts 197°
2026-04-26 13:52 -31.92155 115.97072 188 ft 73 kts 197°
2026-04-26 13:52 -31.92626 115.96917 105 ft 67 kts 198°
2026-04-26 13:52 -31.93088 115.96778 43 ft 68 kts 194°
2026-04-26 13:53 -31.93633 115.96616 43 ft 94 kts 192°
2026-04-26 13:53 -31.94324 115.96420 78 ft 106 kts 196°
2026-04-26 13:53 -31.95049 115.96205 260 ft 118 kts 196°
2026-04-26 13:53 -31.95899 115.95957 628 ft 138 kts 200°
2026-04-26 13:54 -31.96792 115.95368 1064 ft 155 kts 210°
2026-04-26 13:54 -31.97678 115.94449 1371 ft 183 kts 224°
2026-04-26 13:54 -31.98464 115.93175 1779 ft 198 kts 243°
2026-04-26 13:55 -31.98846 115.90078 2749 ft 191 kts 283°
2026-04-26 13:55 -31.98614 115.89072 2817 ft 193 kts 289°
2026-04-26 13:55 -31.98200 115.85313 2985 ft 206 kts 279°
2026-04-26 13:56 -31.98064 115.83619 2981 ft 208 kts 278°
2026-04-26 13:56 -31.97933 115.81926 3014 ft 208 kts 278°
2026-04-26 13:56 -31.97805 115.80242 3005 ft 210 kts 278°
2026-04-26 13:56 -31.97672 115.78532 3006 ft 210 kts 278°
2026-04-26 13:57 -31.97538 115.76827 3011 ft 210 kts 278°
2026-04-26 13:57 -31.97404 115.75101 2997 ft 213 kts 278°
2026-04-26 13:57 -31.97270 115.73383 3000 ft 210 kts 278°
2026-04-26 13:57 -31.97139 115.71680 2999 ft 208 kts 278°
2026-04-26 13:58 -31.97007 115.69980 2996 ft 208 kts 278°
2026-04-26 13:58 -31.96875 115.68287 2993 ft 207 kts 278°
2026-04-26 13:58 -31.96740 115.66597 2996 ft 207 kts 278°
2026-04-26 13:58 -31.96606 115.64908 2995 ft 207 kts 278°
2026-04-26 13:59 -31.96468 115.63221 2997 ft 207 kts 278°
2026-04-26 13:59 -31.96337 115.61532 2998 ft 207 kts 278°
2026-04-26 13:59 -31.96201 115.59842 3000 ft 207 kts 278°
2026-04-26 14:00 -31.95967 115.54716 3008 ft 221 kts 271°
2026-04-26 14:00 -31.95998 115.52878 3014 ft 227 kts 271°
2026-04-26 14:00 -31.96018 115.51637 3012 ft 230 kts 271°
2026-04-26 14:01 -31.96066 115.49099 3019 ft 234 kts 271°
2026-04-26 14:01 -31.96102 115.47177 3014 ft 235 kts 272°
2026-04-26 14:01 -31.96145 115.45256 3019 ft 235 kts 271°
2026-04-26 14:01 -31.96192 115.43331 3016 ft 235 kts 271°
2026-04-26 14:02 -31.96243 115.41410 3019 ft 235 kts 271°
2026-04-26 14:02 -31.96291 115.39489 3012 ft 235 kts 271°
2026-04-26 14:02 -31.96324 115.38307 3011 ft 235 kts 271°
2026-04-26 14:02 -31.96376 115.36380 3012 ft 236 kts 271°
2026-04-26 14:03 -31.96432 115.34447 3012 ft 236 kts 272°
2026-04-26 14:03 -31.96491 115.32540 3008 ft 236 kts 271°
2026-04-26 14:03 -31.96544 115.30606 3013 ft 237 kts 272°
2026-04-26 14:03 -31.96611 115.28673 3012 ft 236 kts 271°
2026-04-26 14:04 -31.96681 115.26749 3020 ft 236 kts 263°
2026-04-26 14:04 -31.97594 115.25380 3692 ft 212 kts 187°
2026-04-26 14:04 -31.98831 115.26023 4395 ft 207 kts 129°
2026-04-26 14:04 -31.99789 115.27438 3750 ft 231 kts 128°
2026-04-26 14:05 -32.00717 115.28567 3356 ft 142 kts 122°
2026-04-26 14:05 -32.00971 115.29395 3166 ft 92 kts 88°
2026-04-26 14:05 -32.01044 115.30178 2785 ft 101 kts 91°
2026-04-26 14:05 -32.01139 115.31026 2644 ft 102 kts 91°
2026-04-26 14:06 -32.01134 115.31829 2623 ft 99 kts 81°
2026-04-26 14:06 -32.01060 115.32693 2484 ft 113 kts 75°
2026-04-26 14:06 -32.00920 115.33619 2404 ft 120 kts 81°
2026-04-26 14:06 -32.00834 115.34587 2344 ft 118 kts 84°
2026-04-26 14:07 -32.00830 115.35588 2149 ft 124 kts 86°
2026-04-26 14:07 -32.00815 115.36595 2010 ft 122 kts 89°
2026-04-26 14:07 -32.00825 115.37573 1946 ft 117 kts 86°
2026-04-26 14:07 -32.00867 115.38541 1845 ft 118 kts 92°
2026-04-26 14:08 -32.00898 115.39490 1821 ft 114 kts 90°
2026-04-26 14:08 -32.00821 115.40400 1814 ft 111 kts 86°
2026-04-26 14:08 -32.00724 115.41296 1754 ft 113 kts 87°
2026-04-26 14:08 -32.00672 115.42222 1677 ft 109 kts 82°
2026-04-26 14:09 -32.00658 115.43065 1632 ft 98 kts 91°
2026-04-26 14:09 -32.00636 115.43884 1613 ft 102 kts 91°
2026-04-26 14:09 -32.00634 115.44720 1571 ft 105 kts 91°
2026-04-26 14:09 -32.00644 115.45594 1534 ft 107 kts 91°
2026-04-26 14:10 -32.00621 115.46451 1353 ft 106 kts 90°
2026-04-26 14:10 -32.00607 115.47346 1048 ft 108 kts 92°
2026-04-26 14:10 -32.00596 115.48220 851 ft 108 kts 94°
2026-04-26 14:10 -32.00579 115.49117 721 ft 112 kts 97°
2026-04-26 14:11 -32.00609 115.51015 386 ft 110 kts 96°
2026-04-26 14:11 -32.00622 115.51913 246 ft 110 kts 95°
2026-04-26 14:11 -32.00624 115.52845 113 ft 106 kts 95°
2026-04-26 14:12 -32.00623 115.53564 25 ft 72 kts 99°
2026-04-26 14:12 -32.00629 115.54064 13 ft 52 kts 90°
2026-04-26 14:12 -32.00628 115.54177 11 ft 13 kts 76°
2026-04-26 14:12 -32.00548 115.54229 9 ft 5 kts 59°
2026-04-26 14:13 -32.00542 115.54242 10 ft 0 kts 78°
2026-04-26 14:14 -32.00542 115.54244 10 ft 3 kts 87°
2026-04-26 14:14 -32.00552 115.54249 9 ft 0 kts 195°
2026-04-26 14:14 -32.00546 115.54242 9 ft 6 kts 349°
2026-04-26 14:14 -32.00554 115.54253 9 ft 0 kts 290°
2026-04-26 14:15 -32.00553 115.54250 9 ft 0 kts 310°
2026-04-26 14:16 -32.00559 115.54218 9 ft 12 kts 220°
2026-04-26 14:16 -32.00622 115.54213 11 ft 5 kts 155°
2026-04-26 14:16 -32.00575 115.54308 10 ft 27 kts 345°
2026-04-26 14:16 -32.00563 115.54210 9 ft 12 kts 195°
2026-04-26 14:17 -32.00589 115.54209 10 ft 11 kts 176°
2026-04-26 14:17 -32.00628 115.54002 14 ft 46 kts 272°
2026-04-26 14:17 -32.00624 115.53636 12 ft 42 kts 270°
2026-04-26 14:17 -32.00623 115.53316 17 ft 36 kts 256°
2026-04-26 14:18 -32.00620 115.53267 16 ft 0 kts 88°
2026-04-26 14:18 -32.00623 115.53298 17 ft 23 kts 94°
2026-04-26 14:18 -32.00627 115.53712 14 ft 60 kts 92°